Showing default

GEESAT 2-03, 58907

Orbit data source: Space-Track

GEESAT 2-03, 58907 is a payload satellite owned by GeeSpace (CN) in LEO that was launched on Fri, 02 Feb 2024 UTC via a CHANG ZHENG 2C launch vehicle from the Xichang Space Center, China (XSC). Payload-class satellites include a variety of spacecraft equipped with specific instruments for various scientific and technological missions. These include communications satellites like Starlink; space stations such as the ISS; scientific satellites like the Hubble; Earth observation satellites from companies like Planet Labs, Umbra, and HawkEye 360; GPS; miniature CubeSats for education and research; and military/defense satellites.

Loading next visibility...
Identifier
58907, 2024-023C
Orbit
LEO
Country
Flag of CNCN / PRC
Related business
Manufacturer
Taizhou Xingkong
Mission
Operational Commercial Navigation
Bus & Motor
GEESAT1, Unknown motor
Mass
130 kg wet, 130 kg dry
Launch date (UTC)
2024-02-02 (2 years ago)
Launch vehicle
CHANG ZHENG 2C
Launch site
Xichang Space Center, China (XSC)
Object type
Payload
Rocket body
Debris
Shape & HBR
Box + 2 Pan, 1.0 m
Radar Cross Section
0.833 m², Medium (>0.1 m² and < 1m²)

Expand to show TLE details & history
Last TLE update: 19 hours ago

TLE from 19 hours ago
0 GEESAT 2-03
1 58907U 24023C   25249.27581547  .00003044  00000-0  29649-3 0  9995
2 58907  49.9988 226.0847 0006616   3.3460 356.7526 14.95174318 86812
Epoch: 2025-09-06T06:37Z
TLE epoch observation values (Epoch: 2025-09-06T06:37:10.456Z)
Latitude
-0.00005°
Longitude
141.17912°
Altitude
577.781 km
Speed
7.576 km/s
True Right ascension
15h 04m 20s
True Declination
0° 00' 00"
Sunlit
Object was in daylight at epoch
Visualization orbit readout
Latitude
Unknown
Longitude
Unknown
Altitude
Unknown
Speed
Unknown
Apparent Right ascension
Unknown
Apparent Declination
Unknown
Sunlit
N/A
Visualization observer readout
Local Sidereal Time
18:02:04
Azimuth
Unknown
Elevation
Unknown
Doppler factor
Unknown
Orbital elements
Apogee altitude
587.199 km
Perigee altitude
577.989 km
Semi-major axis
6,960.731 km
Eccentricity
0.00066
Inclination
49.9988°
RAAN
226.0847°
Arg. of periapsis
3.346°
True anomaly
356.7483°
Mean anomaly
356.7526°
Eccentric anomaly
356.75045°
Mean motion
3.73733 °/min
Orbital period
96.33 mins
BSTAR
0.00029649
Loading maneuver chart data...
Computing Atmospheric mass density...
Loading historical data...
Loading historical data...
Loading historical data...
Loading historical data...
Loading historical data...
Loading historical data...
Loading historical data...

Documentation

Showing up to 5 results
|